User: anonymous   Login
Location: Beuvrequen
(50.8014°N, 1.6652°E)
Time: 10:36:01
(UTC+00:00)
Language:

NOAA 16 DEB - Orbit

View from above orbital plane
View from above orbital plane
View from above satellite
View from above satellite

Ground track
Ground track

The orbit data is extracted from the following two-line orbital elements,

1 41521U 00055MV  22228.70961410  .00003992  00000-0  17017-2 0  9998
2 41521  98.8046 316.5985 0057033 346.4457  13.5187 14.24797884327582
Epoch (UTC): 16 August 2022 17:01:50
Eccentricity: 0.0057033
inclination: 98.8046°
perigee height: 768 km
apogee height: 850 km
right ascension of ascending node: 316.5985°
argument of perigee: 346.4457°
revolutions per day: 14.24797884
mean anomaly at epoch: 13.5187°
orbit number at epoch: 32758

The dashed part of the orbit path shows where the satellite is in the earth's shadow,  

DLR